x

Kaunakakai, Molokai Airport (91186) Weather Station

6:54 - Fri 17th Apr 2015 All times are HST. -10 hours from GMT.

  • Wind
    18mph, 28mph gusts
  • Ar Temp 74°f
  • Sea Pressure 1017.6mb
  • Kaunakakai, Molokai Airport
  • Kaunakakai, Molokai Airport

More Historic Weather Station data

Upgrade to MSW Pro to gain access to the past 30 days of data for over 8000 Wavebouys and Weather Stations around the globe.

Join Pro

Comparision Forecast

View Surf forecast
   
Sex 04/17 6:54 18 28 mph 1017.6mb 74f
5:54 14 28 mph 1016.9mb 75f
4:54 17 29 mph 1016.3mb 79f
3:54 21 36 mph 1015.9mb 79f
2:54 18 32 mph 1016.3mb 79f
1:54 17 31 mph 1016.6mb 81f
12:54 18 32 mph 1017.3mb 81f
11:54 22 32 mph 1018mb 81f
10:54 17 29 mph 1018.6mb 79f
9:54 21 28 mph 1019mb 79f
8:54 20 27 mph 1019mb 77f
7:54 18 25 mph 1018.3mb 75f
6:54 13 21 mph 1017.6mb 70f
5:54 14 20 mph 1017.3mb 72f
5:05 9 22 mph 1016.6mb 72f
4:54 12 18 mph 1016.6mb 72f
4:47 10 18 mph 1016.6mb 72f
4:34 10 20 mph 1016.3mb 68f
3:54 14 20 mph 1016.3mb 70f
2:54 12 18 mph 1016.6mb 72f
2:31 13 22 mph 1016.9mb 70f
2:09 15 22 mph 1017.3mb 68f
1:54 17 24 mph 1017.3mb 68f
12:54 10 23 mph 1017.6mb 72f
Qui 04/16 11:54 12 22 mph 1018mb 70f
10:54 10 18 mph 1018.3mb 73f
10:18 12 24 mph 1018.6mb 72f
9:54 16 29 mph 1018.6mb 68f
9:06 20 27 mph 1018.3mb 72f
8:54 17 25 mph 1018mb 72f
8:50 10 25 mph 1018mb 73f
8:07 9 25 mph 1017.6mb 72f
7:54 15 25 mph 1017.3mb 72f
6:54 13 25 mph 1016.6mb 73f
5:54 12 22 mph 1016.3mb 73f
4:54 21 28 mph 1015.6mb 77f
3:54 14 31 mph 1015.2mb 79f
2:54 17 32 mph 1015.2mb 79f
1:54 20 32 mph 1015.6mb 81f
12:54 18 29 mph 1016.6mb 79f
11:54 18 28 mph 1017.3mb 79f
10:54 22 28 mph 1017.6mb 79f
9:54 17 27 mph 1018.3mb 75f
8:54 20 24 mph 1018.3mb 75f
8:11 8 18 mph 1018.3mb 73f
7:57 12 18 mph 1018.3mb 72f
7:54 9
mph
1018mb 72f
6:54 10
mph
1017.6mb 72f
5:54 8
mph
1016.9mb 72f
4:54 14 18 mph 1016.3mb 72f
4:35 14 23 mph 1016.3mb 72f
3:54 10 21 mph 1016.3mb 72f
2:54 15 22 mph 1016.3mb 72f
2:52 15 21 mph 1016.3mb 72f
1:54 12 24 mph 1016.9mb 72f
12:54 10 21 mph 1018mb 72f
12:25 7 20 mph 1018.3mb 72f
Qua 04/15 11:54 7 22 mph 1018.3mb 72f
11:47 10 22 mph 1018.3mb 72f
11:23 9 22 mph 1019mb 72f
10:54 12 23 mph 1019mb 72f
10:13 9 20 mph 1019mb 72f
9:54 13 23 mph 1019mb 72f
8:54 13 21 mph 1018.6mb 72f
8:21 13 24 mph 1018.3mb 72f
7:54 10 24 mph 1018.3mb 72f
6:54 15 24 mph 1017.6mb 72f
5:54 16 25 mph 1016.9mb 75f
4:54 18 29 mph 1016.9mb 75f
3:54 15 29 mph 1016.9mb 77f
2:54 17 30 mph 1016.9mb 79f
1:54 22 31 mph 1017.3mb 81f
12:54 20 32 mph 1017.6mb 79f
11:54 22 30 mph 1018.3mb 81f
10:54 15 33 mph 1019mb 79f
9:54 18 28 mph 1019.3mb 79f
8:54 15 22 mph 1019.3mb 75f
7:54 12 21 mph 1019.3mb 73f
7:01 12 20 mph 1018.6mb 70f
6:54 10 23 mph 1018.6mb 70f
5:54 14 18 mph 1018mb 68f
5:34 10 24 mph 1018mb 68f
5:27 13 21 mph 1018mb 68f
5:17 12 20 mph 1017.6mb 68f
5:07 12 20 mph 1017.6mb 68f
4:54 13 21 mph 1017.3mb 68f
4:30 10
mph
1017.6mb 70f
3:54 7
mph
1017.6mb 68f
2:54 12 22 mph 1017.6mb 68f
1:54 10 20 mph 1018.3mb 68f
12:54 12
mph
1019.3mb 68f
Ter 04/14 11:54 13 21 mph 1019.6mb 70f
11:21 10 18 mph 1020mb 72f
10:54 13 20 mph 1020.3mb 72f
10:46 10
mph
1020.3mb 72f
10:35 12 20 mph 1020.3mb 72f
9:54 12 21 mph 1020.3mb 73f
9:03 14 22 mph 1020mb 72f
8:54 13 22 mph 1020mb 72f
8:47 13 27 mph 1020mb 72f
8:27 13 24 mph 1019.6mb 73f
8:01 17 23 mph 1019.3mb 72f
7:54 9 20 mph 1019.3mb 73f
6:54 14 23 mph 1018.6mb 73f
5:54 12 24 mph 1018mb 73f
4:54 16 27 mph 1017.3mb 75f
3:54 22 33 mph 1017.3mb 77f
2:54 15 24 mph 1017.6mb 77f
1:54 15 28 mph 1018.6mb 75f
12:54 20 29 mph 1019mb 79f
11:54 15 25 mph 1019.6mb 77f
10:54 15 22 mph 1020.3mb 77f
9:54 14 22 mph 1020mb 73f
8:54 10
mph
1020.3mb 70f
8:01 13 20 mph 1019.6mb 70f
7:54 10 17 mph 1019.6mb 70f
6:54 8 17 mph 1019.3mb 70f
5:54 7
mph
1019mb 68f
5:47 9
mph
1019mb 68f